Find Local Weather

World > North America > United States > California

San Diego, California Regional Weather

Lat: 32.72N, Lon: 117.16W
Wx Zone: CAZ043
Feedback
Expires:201812121000;;670673
ASUS46 KSGX 120911
RWRSGX

SAN DIEGO HOURLY WEATHER ROUNDUP
NATIONAL WEATHER SERVICE SAN DIEGO CA
100 AM PST WED DEC 12 2018

NOTE: "FAIR" INDICATES FEW OR NO CLOUDS BELOW 12,000 FEET WITH NO 
SIGNIFICANT WEATHER AND/OR OBSTRUCTIONS TO VISIBILITY.


CAZ042-043-060-061-PZZ750-775-121000-

GREATER SAN DIEGO AREA
  
CITY           SKY/WX    TMP DP  RH WIND       PRES   REMARKS
SAN DIEGO AP   PTCLDY    58  52  80 E6        30.09F                  
NATIONAL CITY    N/A     55  51  87 CALM      30.08F                  
CHULA VISTA      N/A     53  51  95 CALM      30.01F                  
IMPERIAL BEACH PTCLDY    52  49  89 SE6       30.08F                  
BROWN FIELD    CLOUDY    55  52  89 E6        30.08F                  
MIRAMAR MCAS   CLEAR     55  50  83 E3        30.08F HAZE             
MONTGOMERY FLD CLEAR     51  50  96 E3        30.08F                  
GILLESPIE FLD  MOCLDY    54  50  87 S3        30.07F                  

$$

NORTH SAN DIEGO COUNTY
  
CITY           SKY/WX    TMP DP  RH WIND       PRES   REMARKS
CAMP PENDLETON CLOUDY    45  45 100 CALM      30.10R                  
OCEANSIDE AP   PTCLDY    47  47 100 CALM      30.09S FOG              
OCEANSIDE HBR    N/A     52  50  94 CALM      30.11R                  
CARLSBAD       MOCLDY    53  51  93 E3        30.08R FOG              
DEL MAR          N/A     53  51  94 E3        30.11R                  
LA JOLLA SCRIP   N/A     55  53  92 NE3       30.09S                  
FALLBROOK      FOG       50  50 100 NE3       30.09S VSB 1/4          
ESCONDIDO        N/A     51  47  87 CALM      30.11S                  
SAN MARCOS       N/A     52  49  89 CALM      30.13R                  
POWAY            N/A     49  46  88 CALM      30.10F                  

$$

EAST SAN DIEGO COUNTY
  
CITY           SKY/WX    TMP DP  RH WIND       PRES   REMARKS
RAMONA         MOCLDY    49  47  93 CALM      30.08F FOG              
LA MESA          N/A     54  51  91 CALM      30.03F                  
JAMUL            N/A     52  50  94 CALM      30.09F                  
CAMPO            N/A     36  31  82 NE5       30.07R WCI  32          

$$

ORANGE COUNTY AND THE LOS ANGELES BASIN
  
CITY           SKY/WX    TMP DP  RH WIND       PRES   REMARKS
JOHN WAYNE AP  CLEAR     54  50  86 CALM      30.08S FOG              
LAKE FOREST FR   N/A     49  45  83 NE2       29.97S                  
HUNTINGTON BCH   N/A     50  49  97 SE1       30.09S                  
LOS ALAMITOS   FAIR      51  51 100 E5        30.07F                  
FULLERTON      CLEAR     52  49  89 E3        30.07F FOG              
LONG BEACH     PTCLDY    54  52  93 CALM      30.08S FOG              
L.A. AP        PTCLDY    55  52  89 VRB3      30.09R FOG              
L.A. DOWNTOWN  PTCLDY    53  50  89 CALM      30.08R FOG              

$$

THE INLAND EMPIRE
  
CITY           SKY/WX    TMP DP  RH WIND       PRES   REMARKS
CORONA         FOG       43  43 100 CALM      30.10R VSB 3/4          
CHINO          FOG       48  47  96 E3        30.10S VSB 1/2          
ONTARIO        PTCLDY    49  44  83 NE5       30.08S                  
SAN BERNARDINO FAIR      47  37  68 CALM      30.10R                  
RIVERSIDE AP   CLEAR     48  46  93 E3        30.09R                  
MORENO VALLEY    N/A     50  43  77 CALM      28.19F                  
MARCH ARB      CLEAR     41  41 100 NW3       30.09R                  
HEMET EAST       N/A     48  32  54 CALM      30.01F                  
FRENCH VALLEY  FAIR      43  41  93 CALM      30.09S                  
TEMECULA         N/A     46  45  96 E1        30.07F                  

$$

SAN BERNARDINO AND RIVERSIDE COUNTY MOUNTAINS
  
CITY           SKY/WX    TMP DP  RH WIND       PRES   REMARKS
BIG BEAR AP    CLEAR     23  19  86 CALM      30.18S                  
ANGELUS OAKS     N/A     38  24  57 CALM      30.08R                  

$$

SOUTHERN DESERT INCLUDING THE COACHELLA VALLEY
  
CITY           SKY/WX    TMP DP  RH WIND       PRES   REMARKS
PALM SPRINGS   CLEAR     55  35  47 NW8       30.05F                  
THOUSAND PALMS   N/A     51  38  60 NW1       30.01F                  
PALM DESERT      N/A     49  41  72 CALM        N/A                   
THERMAL        CLEAR     45  39  79 CALM      30.01F                  
BORREGO AP     FAIR      43  39  87 CALM      30.04F                  
IMPERIAL AP    CLEAR     48  43  82 W5        30.03R                  
EL CENTRO NAS  CLEAR     50  42  74 W7        30.05R                  
YUMA AZ        CLEAR     48  43  82 CALM      30.02S                  
MEXICALI       CLEAR     50  45  81 N5        30.03S                  

$$

UPPER DESERT
  
CITY           SKY/WX    TMP DP  RH WIND       PRES   REMARKS
HESPERIA         N/A     40  32  72 W6        30.18S                  
APPLE VALLEY     N/A     33  31  94 CALM      30.20S                  
PALMDALE       CLEAR     40  33  76 S5        30.12S                  
LANCASTER      CLEAR     36  32  85 S3        30.12F                  
EDWARDS AFB    CLEAR     36  36 100 SW3       30.10S                  
DAGGETT        CLEAR     44  35  70 W12       30.10F                  
29 PALMS N     CLEAR     46  33  60 NW9       30.15S                  
NEEDLES        CLEAR     51  34  52 SW7       30.03F                  

$$

REGIONAL REPORTS
  
CITY           SKY/WX    TMP DP  RH WIND       PRES   REMARKS
SANTA BARBARA  PTCLDY    45  40  82 NW6       30.06S                  
SANDBERG       CLEAR     49  15  25 N10       30.16S                  
LAS VEGAS NV   CLEAR     47  31  53 SW7       30.05F                  
PHOENIX AZ     PTCLDY    53  42  66 CALM      30.01S                  
TIJUANA        CLOUDY    55  54  94 CALM      30.12R                  

$$

OFFSHORE ISLANDS
  
CITY           SKY/WX    TMP DP  RH WIND       PRES   REMARKS
CATALINA ARPT  CLEAR     54  42  64 W7        30.10S                  
SAN CLEMENTE I CLEAR     53 N/A N/A S9        30.10S                  
SAN NICOLAS IS CLEAR     57  32  38 W12       30.08F                  

$$

MARINE AND OFFSHORE BUOY REPORTS
  
STATION/POSITION SKY/WX   TEMP    WIND        PRES    VSBY  SWELL
                          AIR SEA DIR/SP/G                  HT/PER/DIR
                          (F)     (DEG/KT/KT) (MB)    (MI)  (FT/S/D)
TANNER BANKS               61 62              1019.1S
S CLEMENTE BASIN           60 63   CALM  /  2 1018.7R         7/280/14
SAN NICOLAS IS.               62                N/A           5/300/14
SO. S. ROSA ISLA           60 60  310/ 19/ 23 1018.1S         8/290/13
W. S. BARBARA CH                                N/A
M. S. BARBARA CH           60 60   90/  4/  8 1018.0F         5/260/11
S. MONICA BASIN            61 62  360/ 10/ 12 1018.1R         5/240/11
S PEDRO CHANNEL               62                N/A           2/260/13
OCEANSIDE OFFSHR              63                N/A           2/270/12
TORREY PINES OTR              63                N/A           3/280/13
SAN DIEGO BAY                                 1018.4F
IMPERIAL BEACH                62                N/A           3/270/14
POINT LOMA SOUTH              64                N/A           3/280/13

$$

  

SKY/WX - Weather  TMP - Temperature  DP - Dew Point  RH - Relative Humidity
WIND - Wind Direction/Speed PRES - Barometric Pressure